Hourly Data Report for October 22, 2013

All times are specified in Local Standard Time (LST). Add 1 hour to adjust for Daylight Saving Time where and when it is observed.

MONCTON INTL A
NEW BRUNSWICK

46°06'44.000" N
64°40'43.000" W
70.70 m
8103201
71705
YQM

Download Data

Hourly Data (October 2013)
Hourly Data Report for October 22, 2013
Temp Definition
°C
Dew Point Temp Definition
°C
Rel Hum Definition
%
Wind Dir Definition
10's deg

Wind Spd Definition
km/h
Visibility Definition
km
Stn Press Definition
kPa
Hmdx Definition


Wind Chill Definition


Weather Definition


TIME
00:00 Legend Double Dagger 3.1 2.1 93 20 10 24.1 100.80     LegendNANA
01:00 Legend Double Dagger 2.3 1.4 94 23 10 24.1 100.80     LegendNANA
02:00 Legend Double Dagger 1.9 1.5 97 19 11 24.1 100.79     Clear
03:00 Legend Double Dagger 2.3 2.0 98 22 9 12.9 100.78     LegendNANA
04:00 Legend Double Dagger 2.2 1.8 97 18 11 24.1 100.78     LegendNANA
05:00 Legend Double Dagger 4.7 3.1 89 13 11 24.1 100.73     Mostly Cloudy
06:00 Legend Double Dagger 6.2 4.7 90 14 10 24.1 100.70     LegendNANA
07:00 Legend Double Dagger 7.1 5.6 90 15 12 24.1 100.69     LegendNANA
08:00 Legend Double Dagger 8.5 7.6 94 16 12 24.1 100.70     Rain Showers
09:00 Legend Double Dagger 9.4 8.2 92 15 13 24.1 100.66     LegendNANA
10:00 Legend Double Dagger 10.3 8.1 86 14 12 24.1 100.57     LegendNANA
11:00 Legend Double Dagger 13.0 7.3 68 16 14 24.1 100.48     Mostly Cloudy
12:00 Legend Double Dagger 15.3 5.6 52 15 29 24.1 100.42     LegendNANA
13:00 Legend Double Dagger 15.1 8.2 63 16 21 24.1 100.29     LegendNANA
14:00 Legend Double Dagger 13.6 7.0 64 16 31 24.1 100.19     Mostly Cloudy
15:00 Legend Double Dagger 12.8 7.5 70 16 23 24.1 100.18     LegendNANA
16:00 Legend Double Dagger 13.0 7.7 70 15 22 24.1 100.09     LegendNANA
17:00 Legend Double Dagger 12.6 7.9 73 14 21 24.1 100.02     Mostly Cloudy
18:00 Legend Double Dagger 12.1 8.8 80 15 21 24.1 99.98     Drizzle
19:00 Legend Double Dagger 11.8 9.2 84 15 17 24.1 99.88     Drizzle
20:00 Legend Double Dagger 11.9 9.0 82 16 28 24.1 99.75     Rain Showers
21:00 Legend Double Dagger 11.1 10.0 93 14 32 19.3 99.68     Rain Showers
22:00 Legend Double Dagger 11.1 10.2 94 16 13 19.3 99.66     Rain Showers
23:00 Legend Double Dagger 11.2 10.4 95 15 12 16.1 99.60     Rain Showers

Notes on Data Quality.

Legend

  • E = Estimated
  • M = Missing
  • NA = Not Available
  • ‡ = Partner data that is not subject to review by the National Climate Archives
Date modified: